Location: York
(31.8935°S, 116.7682°E)
Time: 19:55:59
(UTC+08:00)

SR - Visible Passes

Search period start: 13 June 2021 00:00
Search period end: 23 June 2021 00:00
Orbit: 574 x 880 km, 66.7° (Epoch: 13 June)

Date Brightness Start Highest point End Pass type
(mag) Time Alt. Az. Time Alt. Az. Time Alt. Az.
13 Jun ? 06:09:50 10° NW 06:14:02 59° WSW 06:18:15 10° SSE visible
14 Jun ? 05:20:10 10° N 05:24:19 51° ENE 05:28:26 10° SE visible
15 Jun ? 04:31:38 10° NNE 04:34:44 20° ENE 04:37:49 10° ESE visible
15 Jun ? 06:12:55 10° WNW 06:16:30 26° WSW 06:20:07 10° S visible
16 Jun ? 05:26:46 65° SW 05:26:46 65° SW 05:30:52 10° SSE visible
17 Jun ? 04:40:20 14° SE 04:40:20 14° SE 04:40:59 10° SE visible
17 Jun ? 06:19:50 12° SW 06:19:50 12° SW 06:21:02 10° SSW visible
18 Jun ? 05:32:36 11° S 05:32:36 11° S 05:32:48 10° S visible
